| time (UTC) | temp F | wind direction | speed knots | gust knots | rain 1hr in | rain 24hr in | rain mn in | humidity % | barometer mb |
| 20260905022731 | 82 | 62 | 5.2 | 8.7 | 0.00 | 0.00 | 0.00 | 4 | 1009.9 |
| 20260905021731 | 80 | 81 | 1.7 | 9.6 | 0.00 | 0.00 | 0.00 | 4 | 1010.1 |
| 20260905020731 | 81 | 66 | 1.7 | 6.1 | 0.00 | 0.00 | 0.00 | 4 | 1010.5 |
| 20260905015731 | 81 | 91 | 3.5 | 6.1 | 0.00 | 0.00 | 0.00 | 4 | 1010.7 |
| 20260905014731 | 80 | 132 | 7.0 | 7.8 | 0.00 | 0.00 | 0.00 | 4 | 1010.9 |
| 20260905013731 | 79 | 38 | 0.9 | 8.7 | 0.00 | 0.00 | 0.00 | 4 | 1011.4 |
| 20260905012731 | 78 | 60 | 2.6 | 7.8 | 0.00 | 0.00 | 0.00 | 4 | 1011.5 |
| 20260905011731 | 78 | 89 | 1.7 | 7.0 | 0.00 | 0.00 | 0.00 | 4 | 1011.7 |
| 20260905010731 | 77 | 45 | 5.2 | 7.0 | 0.00 | 0.00 | 0.00 | 4 | 1011.9 |
| 20260905005731 | 77 | 31 | 1.7 | 7.0 | 0.00 | 0.00 | 0.00 | 4 | 1012.2 |
| 20260905004731 | 76 | 6 | 1.7 | 7.8 | 0.00 | 0.00 | 0.00 | 4 | 1012.5 |
| 20260905003731 | 76 | 73 | 3.5 | 6.1 | 0.00 | 0.00 | 0.00 | 4 | 1012.8 |
| 20260905002731 | 73 | 133 | 1.7 | 4.3 | 0.00 | 0.00 | 0.00 | 4 | 1013.1 |
| 20260905001731 | 75 | 97 | 1.7 | 7.0 | 0.00 | 0.00 | 0.00 | 4 | 1013.2 |
| 20260905000731 | 75 | 272 | 1.7 | 4.3 | 0.00 | 0.00 | 0.00 | 4 | 1013.4 |
| 20260904235730 | 75 | 129 | 1.7 | 6.1 | 0.00 | 0.00 | 0.00 | 4 | 1013.7 |
| 20260904234730 | 74 | 143 | 3.5 | 5.2 | 0.00 | 0.00 | 0.00 | 4 | 1014.0 |
| 20260904233730 | 73 | 278 | 1.7 | 9.6 | 0.00 | 0.00 | 0.00 | 4 | 1014.3 |
| 20260904232730 | 70 | 237 | 2.6 | 5.2 | 0.00 | 0.00 | 0.00 | 5 | 1014.5 |
| 20260904231730 | 70 | 144 | 0.9 | 7.0 | 0.00 | 0.00 | 0.00 | 5 | 1014.4 |
| 20260904230730 | 70 | 123 | 1.7 | 6.1 | 0.00 | 0.00 | 0.00 | 5 | 1014.6 |
| 20260904225730 | 71 | 121 | 3.5 | 4.3 | 0.00 | 0.00 | 0.00 | 4 | 1014.7 |
| 20260904224730 | 71 | 168 | 2.6 | 3.5 | 0.00 | 0.00 | 0.00 | 5 | 1015.1 |
| 20260904223730 | 70 | 175 | 3.5 | 4.3 | 0.00 | 0.00 | 0.00 | 5 | 1015.1 |
| 20260904222730 | 69 | 243 | 0.9 | 7.8 | 0.00 | 0.00 | 0.00 | 5 | 1015.4 |
| 20260904221730 | 69 | 210 | 1.7 | 3.5 | 0.00 | 0.00 | 0.00 | 5 | 1015.7 |
| 20260904220730 | 68 | 253 | 3.5 | 6.1 | 0.00 | 0.00 | 0.00 | 5 | 1015.7 |
| 20260904215730 | 67 | 198 | 0.9 | 4.3 | 0.00 | 0.00 | 0.00 | 5 | 1015.7 |
| 20260904214730 | 66 | 0 | 0.0 | 1.7 | 0.00 | 0.00 | 0.00 | 5 | 1015.9 |
| 20260904213730 | 65 | 0 | 0.0 | 2.6 | 0.00 | 0.00 | 0.00 | 5 | 1015.9 |
| 20260904212730 | 64 | 228 | 2.6 | 3.5 | 0.00 | 0.00 | 0.00 | 5 | 1016.0 |
| 20260904211730 | 63 | 229 | 2.6 | 6.1 | 0.00 | 0.00 | 0.00 | 5 | 1015.9 |
| 20260904210730 | 63 | 254 | 4.3 | 4.3 | 0.00 | 0.00 | 0.00 | 6 | 1015.8 |
| 20260904205730 | 62 | 251 | 4.3 | 8.7 | 0.00 | 0.00 | 0.00 | 6 | 1016.0 |
| 20260904204730 | 62 | 239 | 1.7 | 7.0 | 0.00 | 0.00 | 0.00 | 6 | 1016.1 |
| 20260904203730 | 61 | 217 | 3.5 | 9.6 | 0.00 | 0.00 | 0.00 | 6 | 1016.0 |
| 20260904202730 | 61 | 218 | 3.5 | 4.3 | 0.00 | 0.00 | 0.00 | 6 | 1016.0 |
| 20260904201730 | 60 | 217 | 0.9 | 3.5 | 0.00 | 0.00 | 0.00 | 6 | 1016.0 |
| 20260904200730 | 60 | 219 | 1.7 | 3.5 | 0.00 | 0.00 | 0.00 | 6 | 1015.9 |
| 20260904195730 | 61 | 235 | 1.7 | 3.5 | 0.00 | 0.00 | 0.00 | 6 | 1016.0 |
| 20260904194730 | 60 | 232 | 1.7 | 4.3 | 0.00 | 0.00 | 0.00 | 6 | 1015.9 |
| 20260904193730 | 60 | 226 | 2.6 | 5.2 | 0.00 | 0.00 | 0.00 | 6 | 1015.6 |
| 20260904192730 | 60 | 250 | 0.9 | 4.3 | 0.00 | 0.00 | 0.00 | 6 | 1015.6 |
| 20260904191730 | 60 | 249 | 2.6 | 5.2 | 0.00 | 0.00 | 0.00 | 6 | 1015.7 |
| 20260904190730 | 60 | 241 | 1.7 | 3.5 | 0.00 | 0.00 | 0.00 | 6 | 1015.6 |
| 20260904185730 | 59 | 242 | 0.9 | 2.6 | 0.00 | 0.00 | 0.00 | 6 | 1015.8 |
| 20260904184730 | 59 | 233 | 0.9 | 2.6 | 0.00 | 0.00 | 0.00 | 6 | 1015.9 |
| 20260904183729 | 60 | 0 | 0.0 | 1.7 | 0.00 | 0.00 | 0.00 | 6 | 1016.0 |
| 20260904182729 | 60 | 234 | 1.7 | 3.5 | 0.00 | 0.00 | 0.00 | 6 | 1016.0 |
| 20260904181729 | 60 | 214 | 2.6 | 2.6 | 0.00 | 0.00 | 0.00 | 6 | 1016.1 |
| 20260904180729 | 60 | 210 | 0.9 | 4.3 | 0.00 | 0.00 | 0.00 | 6 | 1016.0 |
| 20260904175729 | 60 | 220 | 3.5 | 4.3 | 0.00 | 0.00 | 0.00 | 6 | 1015.9 |
| 20260904174729 | 59 | 220 | 1.7 | 5.2 | 0.00 | 0.00 | 0.00 | 7 | 1015.9 |
| 20260904173729 | 59 | 247 | 2.6 | 2.6 | 0.00 | 0.00 | 0.00 | 6 | 1015.9 |
| 20260904172729 | 59 | 247 | 0.9 | 1.7 | 0.00 | 0.00 | 0.00 | 6 | 1015.9 |
| 20260904171729 | 59 | 0 | 0.0 | 0.0 | 0.00 | 0.00 | 0.00 | 6 | 1016.1 |
| 20260904170729 | 59 | 0 | 0.0 | 0.9 | 0.00 | 0.00 | 0.00 | 6 | 1016.2 |
| 20260904165729 | 59 | 0 | 0.0 | 0.0 | 0.00 | 0.00 | 0.00 | 6 | 1016.3 |
| 20260904164729 | 59 | 0 | 0.0 | 0.0 | 0.00 | 0.00 | 0.00 | 6 | 1016.4 |
| 20260904163729 | 59 | 0 | 0.0 | 0.0 | 0.00 | 0.00 | 0.00 | 6 | 1016.5 |
| 20260904162729 | 59 | 0 | 0.0 | 1.7 | 0.00 | 0.00 | 0.00 | 6 | 1016.8 |
| 20260904161729 | 60 | 249 | 4.3 | 5.2 | 0.00 | 0.00 | 0.00 | 6 | 1017.0 |
| 20260904160728 | 58 | 279 | 2.6 | 3.5 | 0.00 | 0.00 | 0.00 | 7 | 1017.2 |
| 20260904155728 | 58 | 0 | 0.0 | 0.0 | 0.00 | 0.00 | 0.00 | 7 | 1017.2 |
| 20260904154728 | 59 | 281 | 1.7 | 2.6 | 0.00 | 0.00 | 0.00 | 7 | 1017.3 |
| 20260904153728 | 58 | 279 | 1.7 | 1.7 | 0.00 | 0.00 | 0.00 | 7 | 1017.5 |
| 20260904152728 | 57 | 279 | 0.9 | 0.9 | 0.00 | 0.00 | 0.00 | 7 | 1017.7 |
| 20260904151728 | 58 | 0 | 0.0 | 0.0 | 0.00 | 0.00 | 0.00 | 7 | 1017.6 |
| 20260904150728 | 58 | 279 | 0.9 | 1.7 | 0.00 | 0.00 | 0.00 | 7 | 1017.8 |
| 20260904145728 | 59 | 279 | 0.9 | 2.6 | 0.00 | 0.00 | 0.00 | 7 | 1018.0 |
| 20260904144728 | 60 | 279 | 0.9 | 5.2 | 0.00 | 0.00 | 0.00 | 7 | 1018.1 |
| 20260904143728 | 60 | 298 | 1.7 | 3.5 | 0.00 | 0.00 | 0.00 | 7 | 1018.0 |
| 20260904142728 | 61 | 299 | 3.5 | 7.0 | 0.00 | 0.00 | 0.00 | 6 | 1018.1 |
| 20260904141728 | 61 | 307 | 4.3 | 4.3 | 0.00 | 0.00 | 0.00 | 6 | 1018.3 |
| 20260904140728 | 61 | 301 | 2.6 | 7.0 | 0.00 | 0.00 | 0.00 | 6 | 1018.3 |
| 20260904135728 | 61 | 293 | 2.6 | 5.2 | 0.00 | 0.00 | 0.00 | 6 | 1018.2 |
| 20260904134728 | 61 | 294 | 2.6 | 3.5 | 0.00 | 0.00 | 0.00 | 6 | 1018.3 |
| 20260904133728 | 60 | 292 | 0.9 | 2.6 | 0.00 | 0.00 | 0.00 | 7 | 1018.3 |
| 20260904132728 | 59 | 0 | 0.0 | 0.0 | 0.00 | 0.00 | 0.00 | 7 | 1018.5 |
| 20260904131728 | 58 | 0 | 0.0 | 0.9 | 0.00 | 0.00 | 0.00 | 7 | 1018.5 |
| 20260904130728 | 59 | 291 | 1.7 | 3.5 | 0.00 | 0.00 | 0.00 | 7 | 1018.6 |
| 20260904125728 | 58 | 292 | 2.6 | 7.8 | 0.00 | 0.00 | 0.00 | 8 | 1018.7 |
| 20260904124728 | 58 | 0 | 0.0 | 0.9 | 0.00 | 0.00 | 0.00 | 8 | 1018.8 |
| 20260904123728 | 58 | 0 | 0.0 | 1.7 | 0.00 | 0.00 | 0.00 | 8 | 1019.1 |
| 20260904122728 | 58 | 0 | 0.0 | 0.0 | 0.00 | 0.00 | 0.00 | 8 | 1019.2 |
| 20260904121728 | 58 | 316 | 2.6 | 2.6 | 0.00 | 0.00 | 0.00 | 8 | 1019.3 |
| 20260904120728 | 59 | 0 | 0.0 | 0.9 | 0.00 | 0.00 | 0.00 | 8 | 1019.4 |
| 20260904115728 | 59 | 0 | 0.0 | 1.7 | 0.00 | 0.00 | 0.00 | 8 | 1019.3 |
| 20260904114728 | 59 | 345 | 0.9 | 1.7 | 0.00 | 0.00 | 0.00 | 8 | 1019.3 |
| 20260904113728 | 60 | 345 | 1.7 | 3.5 | 0.00 | 0.00 | 0.00 | 8 | 1019.4 |
| 20260904112728 | 60 | 0 | 0.0 | 0.0 | 0.00 | 0.00 | 0.00 | 7 | 1019.5 |
| 20260904111728 | 60 | 345 | 0.9 | 3.5 | 0.00 | 0.00 | 0.00 | 7 | 1019.5 |
| 20260904110728 | 60 | 345 | 0.9 | 4.3 | 0.00 | 0.00 | 0.00 | 7 | 1019.5 |
| 20260904105728 | 61 | 0 | 0.0 | 3.5 | 0.00 | 0.00 | 0.00 | 7 | 1019.2 |
| 20260904104728 | 61 | 346 | 0.9 | 3.5 | 0.00 | 0.00 | 0.00 | 7 | 1019.3 |
| 20260904103728 | 61 | 346 | 0.9 | 3.5 | 0.00 | 0.00 | 0.00 | 7 | 1019.2 |
| 20260904102728 | 61 | 349 | 1.7 | 3.5 | 0.00 | 0.00 | 0.00 | 7 | 1019.0 |
| 20260904101728 | 61 | 349 | 0.9 | 4.3 | 0.00 | 0.00 | 0.00 | 7 | 1018.9 |
| 20260904100728 | 61 | 346 | 0.9 | 3.5 | 0.00 | 0.00 | 0.00 | 7 | 1019.0 |
| 20260904095728 | 61 | 346 | 0.9 | 4.3 | 0.00 | 0.00 | 0.00 | 7 | 1018.9 |
| 20260904094728 | 61 | 341 | 0.9 | 3.5 | 0.00 | 0.00 | 0.00 | 7 | 1018.6 |
| 20260904093728 | 61 | 0 | 0.0 | 1.7 | 0.00 | 0.00 | 0.00 | 7 | 1018.6 |
| 20260904092727 | 60 | 341 | 3.5 | 3.5 | 0.00 | 0.00 | 0.00 | 7 | 1018.5 |
| 20260904091727 | 61 | 339 | 3.5 | 5.2 | 0.00 | 0.00 | 0.00 | 7 | 1018.3 |
| 20260904090727 | 61 | 350 | 1.7 | 4.3 | 0.00 | 0.00 | 0.00 | 7 | 1018.3 |
| 20260904085727 | 60 | 35 | 2.6 | 3.5 | 0.00 | 0.00 | 0.00 | 7 | 1018.3 |
| 20260904084727 | 60 | 0 | 0.0 | 0.0 | 0.00 | 0.00 | 0.00 | 7 | 1018.2 |
| 20260904083727 | 61 | 0 | 0.0 | 0.0 | 0.00 | 0.00 | 0.00 | 7 | 1018.2 |
| 20260904082727 | 61 | 36 | 0.9 | 2.6 | 0.00 | 0.00 | 0.00 | 7 | 1018.0 |
| 20260904081727 | 61 | 0 | 0.0 | 1.7 | 0.00 | 0.00 | 0.00 | 7 | 1017.9 |
| 20260904080727 | 61 | 0 | 0.0 | 1.7 | 0.00 | 0.00 | 0.00 | 6 | 1017.9 |
| 20260904075727 | 62 | 36 | 0.9 | 2.6 | 0.00 | 0.00 | 0.00 | 6 | 1017.9 |
| 20260904074727 | 62 | 37 | 1.7 | 2.6 | 0.00 | 0.00 | 0.00 | 6 | 1017.8 |
| 20260904073727 | 62 | 0 | 0.0 | 1.7 | 0.00 | 0.00 | 0.00 | 6 | 1017.6 |
| 20260904072727 | 62 | 37 | 0.9 | 2.6 | 0.00 | 0.00 | 0.00 | 7 | 1017.4 |
| 20260904071727 | 62 | 0 | 0.0 | 0.9 | 0.00 | 0.00 | 0.00 | 7 | 1017.2 |
| 20260904070727 | 62 | 37 | 0.9 | 1.7 | 0.00 | 0.00 | 0.00 | 7 | 1017.1 |
| 20260904065727 | 63 | 0 | 0.0 | 0.0 | 0.00 | 0.00 | 0.00 | 6 | 1017.1 |
| 20260904064727 | 64 | 37 | 1.7 | 1.7 | 0.00 | 0.00 | 0.00 | 6 | 1017.0 |
| 20260904063727 | 64 | 35 | 2.6 | 2.6 | 0.00 | 0.00 | 0.00 | 6 | 1016.9 |
| 20260904062727 | 64 | 37 | 1.7 | 5.2 | 0.00 | 0.00 | 0.00 | 6 | 1017.0 |
| 20260904061727 | 65 | 12 | 1.7 | 7.0 | 0.00 | 0.00 | 0.00 | 6 | 1017.0 |
| 20260904060727 | 65 | 46 | 2.6 | 4.3 | 0.00 | 0.00 | 0.00 | 6 | 1017.0 |
| 20260904055727 | 65 | 43 | 5.2 | 8.7 | 0.00 | 0.00 | 0.00 | 6 | 1017.0 |
| 20260904054727 | 66 | 20 | 1.7 | 7.0 | 0.00 | 0.00 | 0.00 | 6 | 1017.2 |
| 20260904053727 | 67 | 46 | 2.6 | 6.1 | 0.00 | 0.00 | 0.00 | 6 | 1017.2 |
| 20260904052727 | 67 | 56 | 3.5 | 7.0 | 0.00 | 0.00 | 0.00 | 6 | 1017.2 |
| 20260904051727 | 67 | 89 | 5.2 | 7.0 | 0.00 | 0.00 | 0.00 | 6 | 1017.2 |
| 20260904050727 | 67 | 116 | 4.3 | 7.8 | 0.00 | 0.00 | 0.00 | 6 | 1017.4 |
| 20260904045727 | 70 | 175 | 2.6 | 2.6 | 0.00 | 0.00 | 0.00 | 5 | 1017.4 |
| 20260904044726 | 72 | 193 | 0.9 | 3.5 | 0.00 | 0.00 | 0.00 | 4 | 1017.6 |
| 20260904043726 | 72 | 247 | 1.7 | 2.6 | 0.00 | 0.00 | 0.00 | 4 | 1017.7 |
| 20260904042726 | 73 | 256 | 2.6 | 3.5 | 0.00 | 0.00 | 0.00 | 4 | 1017.6 |
| 20260904041726 | 71 | 288 | 0.9 | 1.7 | 0.00 | 0.00 | 0.00 | 4 | 1017.7 |
| 20260904040726 | 72 | 272 | 0.9 | 7.8 | 0.00 | 0.00 | 0.00 | 4 | 1018.0 |
| 20260904035726 | 72 | 295 | 2.6 | 2.6 | 0.00 | 0.00 | 0.00 | 4 | 1017.9 |
| 20260904034726 | 71 | 251 | 0.9 | 5.2 | 0.00 | 0.00 | 0.00 | 4 | 1018.0 |
| 20260904033726 | 71 | 262 | 2.6 | 5.2 | 0.00 | 0.00 | 0.00 | 4 | 1018.2 |
| 20260904032726 | 70 | 219 | 3.5 | 5.2 | 0.00 | 0.00 | 0.00 | 4 | 1018.3 |
| 20260904031726 | 70 | 289 | 0.9 | 5.2 | 0.00 | 0.00 | 0.00 | 4 | 1018.4 |
| 20260904030726 | 70 | 249 | 0.9 | 3.5 | 0.00 | 0.00 | 0.00 | 4 | 1018.5 |
| 20260904025726 | 69 | 236 | 4.3 | 7.0 | 0.00 | 0.00 | 0.00 | 4 | 1018.7 |
| 20260904024726 | 70 | 245 | 2.6 | 7.8 | 0.00 | 0.00 | 0.00 | 4 | 1018.8 |
| 20260904023725 | 69 | 316 | 1.7 | 2.6 | 0.00 | 0.00 | 0.00 | 4 | 1019.0 |